Flag for United Kingdom Weather past 2 weeks in Glasgow, Scotland, United Kingdom

Now
57 °F

Overcast.


Feels Like: 55 °F
Forecast: 54 / 65 °F
Wind: 8 mph from East

Location: Glasgow Airport

Current Time: Sep 17, 2014 at 3:17:07 AM

Latest Report: Sep 17, 2014 at 2:50 AM


Visibility: 5 mi

Pressure: 30.04 "Hg

Humidity: 94%

Dew point: 55 °F

Location of GlasgowLocation

Historic Weather in Glasgow — Graph

°F

Glasgow temperature yesterday

Maximum temperature yesterday: 64 °F (at 2:20 PM)
Minimum temperature yesterday: 55 °F (at 5:50 AM)
Average temperature yesterday: 60 °F

Past Weeks' High & Low Weather Summary

 TemperatureHumidityPressure
High72 °F (Sep 4, 2:20 PM)100% (Sep 3, 4:50 AM)30.39 "Hg (Sep 3, 4:50 AM)
Low37 °F (Sep 8, 6:20 AM)50% (Sep 13, 5:20 PM)29.98 "Hg (Sep 6, 1:50 PM)
Average57 °F83%30.16 "Hg
* Reported Sep 2 2:20 AM — Sep 17 2:20 AM, Glasgow, Weather by CustomWeather, © 2014

Note: Actual official high and low records may vary slightly from our data, if they occured in-between our weather recording intervals... More about our weather records

Advertising

Glasgow weather history for previous 24 hours

 ConditionsComfort  
Time TempWeatherWind HumidityBarometerVisibility
2:20 AM
Sep 17
57 °FLow clouds.8 mph94%30.04 "Hg6 mi
1:50 AM57 °FPassing clouds.9 mph94%30.04 "Hg4 mi
1:20 AM59 °FMostly cloudy.8 mph88%30.07 "Hg3 mi
12:50 AM59 °FLow clouds.7 mph88%30.07 "Hg4 mi
12:20 AM59 °FLow clouds.7 mph88%30.04 "Hg4 mi
11:20 PM
Sep 16
59 °FPassing clouds.7 mph88%30.04 "Hg5 mi
10:50 PM59 °FPartly cloudy.9 mph88%30.04 "Hg6 mi
10:20 PM59 °FPassing clouds.8 mph88%30.04 "Hg4 mi
9:50 PM61 °FPassing clouds.9 mph83%30.04 "Hg6 mi
9:20 PM61 °FPassing clouds.9 mph83%30.04 "Hg6 mi
8:50 PM61 °FPassing clouds.6 mph83%30.04 "HgN/A
8:20 PM63 °FBroken clouds.9 mph77%30.04 "HgN/A
7:50 PM63 °FScattered clouds.8 mph77%30.01 "HgN/A
7:20 PM63 °FScattered clouds.8 mph83%30.01 "HgN/A
6:50 PM63 °FScattered clouds.8 mph83%30.01 "HgN/A
6:20 PM63 °FScattered clouds.8 mph83%30.01 "HgN/A
5:20 PM64 °FScattered clouds.8 mph78%30.01 "HgN/A
4:50 PM64 °FScattered clouds.10 mph78%30.01 "HgN/A
4:20 PM64 °FScattered clouds.9 mph78%30.01 "HgN/A
3:50 PM64 °FScattered clouds.8 mph78%30.01 "HgN/A
3:20 PM64 °FScattered clouds.7 mph78%30.01 "HgN/A
2:50 PM64 °FBroken clouds.7 mph78%30.01 "HgN/A
2:20 PM64 °FBroken clouds.7 mph78%30.04 "HgN/A
1:50 PM63 °FPartly sunny.7 mph83%30.04 "HgN/A
1:20 PM63 °FPartly sunny.8 mph83%30.04 "HgN/A
12:50 PM63 °FPartly sunny.8 mph83%30.04 "HgN/A
12:20 PM61 °FPartly sunny.8 mph83%30.04 "HgN/A
11:50 AM61 °FCloudy.8 mph88%30.04 "HgN/A
11:20 AM61 °FPartly sunny.6 mph88%30.04 "HgN/A
10:50 AM59 °FPartly sunny.7 mph94%30.04 "HgN/A
10:20 AM59 °FPartly sunny.7 mph94%30.04 "HgN/A
9:50 AM59 °FPartly sunny.6 mph94%30.04 "HgN/A
9:20 AM57 °FPartly sunny.5 mph94%30.04 "Hg4 mi
8:50 AM57 °FPartly sunny.No wind94%30.04 "Hg4 mi
8:20 AM55 °FLow clouds.2 mph100%30.04 "Hg4 mi
7:50 AM55 °FFog.2 mph100%30.04 "Hg2 mi
7:20 AM55 °FFog.2 mph94%30.04 "Hg3 mi
6:50 AM55 °FPassing clouds.2 mph94%30.04 "Hg4 mi
6:20 AM55 °FMostly cloudy.5 mph100%30.04 "Hg4 mi
5:50 AM55 °FPartly cloudy.3 mph100%30.04 "Hg4 mi
5:20 AM57 °FMostly cloudy.3 mph94%30.04 "Hg5 mi
4:50 AM57 °FMostly cloudy.5 mph94%30.04 "HgN/A
4:20 AM57 °FLow clouds.3 mph94%30.04 "HgN/A
3:50 AM57 °FPassing clouds.6 mph94%30.04 "Hg5 mi
3:20 AM57 °FLow clouds.3 mph94%30.04 "HgN/A
Weather by CustomWeather, © 2014

See weather overviewHow to use our weather pages